Starlink 31801

operational
NORAD ID: 59647 Int'l Des: 2024-082 Owner: SPXS Country: US Constellation: starlink
LEOCIRCULAR

About Starlink 31801

Description loading...

Live Position

Loading 3D Globe...

Upcoming Passes

Altitude History

Altitude vs Time

uPlot chart will show altitude changes over time

Two-Line Element Set

1 59647U 24082S 26067.29605545 -.00000748 00000-0 -17679-4 0 9999
2 59647 42.9989 148.1156 0001144 265.2657 94.8064 15.27581996104642
Epoch: Mar 8, 2026 • Age: 17 hours

Current Status

Altitude 483.7 km
Velocity 7.63 km/s
Sub-Earth Point -6.17°S, 94.27°W
Launch Date May 3, 2024
Age 1.8 years
Type internet

Technical Details

Classification Payload
Mass 730.00 kg
Dry Mass 700.00 kg
Total Mass 730.00 kg
Length 0.30 m
Diameter 4.10 m
Span 29.00 m
Shape Box + pan
Manufacturer SPXS
Bus Type Starlink V2M
Phase Status In Orbit
Owner/State SPXS/US

Large Constellations

Loading constellations...